Regional Weather Roundup
Issued by NWS Grand Forks, ND

Home | Current Version | Previous Version | Text Only | Print | Product List | Glossary Off
Versions: 1 2 3 4 5 6 7 8 9 10 11 12 13 14 15 16 17 18 19 20 21 22 23 24 25 26 27 28 29 30 31 32 33 34 35 36 37 38 39 40 41 42 43 44 45 46 47 48 49 50

000
ASUS43 KFGF 030310
RWRFGF
PRAIRIE TO PINES  WEATHER ROUNDUP
NATIONAL WEATHER SERVICE EASTERN NORTH DAKOTA/GRAND FORKS ND
1000 PM CDT SUN AUG 02 2015

 **SATELLITE DATA USED TO AUGMENT SKY COVER AT AUTOMATED STATIONS**
 *****  WEATHER ACROSS EASTERN NORTH DAKOTA  *****

CITY           SKY/WX    TMP DP  RH WIND       PRES   REMARKS
GRAND FORKS    CLEAR     59  50  72 W8        29.84R
GRAND FRKS AFB NOT AVBL
DEVILS LAKE    CLEAR     61  46  59 NW7       29.90R
FARGO          CLEAR     64  52  64 W7        29.85R
WAHPETON ARPT  CLEAR     55  48  76 W6        29.87R
$$

 ***** WEATHER ACROSS CENTRAL AND WESTERN NORTH DAKOTA  *****

CITY           SKY/WX    TMP DP  RH WIND       PRES   REMARKS
BISMARCK       CLEAR     71  51  49 N5        29.95R
MINOT          CLEAR     66  48  52 NW10      29.94R
JAMESTOWN      CLEAR     62  52  69 NW9       29.91R
MINOT AFB      CLEAR     61  52  73 NW8       29.93R
GARRISON         N/A     62  54  74 NW5       29.95R
WILLISTON      CLEAR     70  47  43 N8        29.99R
DICKINSON      CLEAR     65  49  56 NE5       29.99R
HETTINGER      CLEAR     64  48  56 NE8       30.01R
$$

 *****  OTHER AIRPORT OBSERVATIONS IN OUR AREA  *****

CITY           SKY/WX    TMP DP  RH WIND       PRES   REMARKS
WALHALLA       FAIR      63  48  59 MISG      29.86R
GRAFTON AIRPOR FAIR      68  52  56 W10       29.84S
VALLEY CITY AR FAIR      63  55  77 W9        29.90R
CANDO          NOT AVBL
CAVALIER APRT  FAIR      59  50  72 NW3       29.85R
GWINNER        FAIR      63  54  72 W5        29.90R
SHEYENNE NWR     N/A     61  52  71 W2        29.95S
ROLLA          FAIR      55  50  82 NW9       29.94R
 ***** THE ABOVE OBSERVATIONS ARE NON NWS ARE NOT QUALITY
       CONTROLLED AND MAY MIS-REPORT RAIN FOR SNOW...
$$

  *****  WEATHER ACROSS NORTHERN MINNESOTA  *****

CITY           SKY/WX    TMP DP  RH WIND       PRES   REMARKS
FLAG ISLAND    CLOUDY    66  50  55 NW15      29.76S
WARROAD        CLEAR     61  46  59 W7        29.80S
ROSEAU         CLEAR     61  48  63 NW6       29.81R
HALLOCK        CLEAR     61  50  67 NW3       29.83R
THF RVR FALLS  CLEAR     61  52  72 CALM      29.84R
BAUDETTE       CLOUDY    65  47  52 NW9G21    29.78R
WASKISH        CLEAR     64  48  55 W12       29.80R
CROOKSTON      CLEAR     61  52  72 NW7       29.84R
STEPHEN NDAWN    N/A     61  52  72 W3          N/A
GREENBUSH NDAW   N/A     55  52  88 W3          N/A
$$
  *****  WEATHER ACROSS CENTRAL AND WEST MINNESOTA  *****

CITY           SKY/WX    TMP DP  RH WIND       PRES   REMARKS
FOSSTON        PTCLDY    55  48  76 CALM      29.85R
BEMIDJI        CLEAR     57  44  60 W6        29.82S
PARK RAPIDS    CLEAR     59  48  67 W5        29.83R
ELBOW LAKE     FAIR      64  52  65 NW6       29.87R
WADENA         CLEAR     57  48  72 W5        29.84S
DETROIT LAKES  CLEAR     64  50  59 W7        29.86S
MOORHEAD       CLEAR     61  52  72 W7        29.86R
FERGUS FALLS   CLEAR     63  52  67 NW6       29.86R
MORRIS MN      CLEAR     63  54  72 NW7       29.87R
STAPLES        CLEAR     55  48  76 W5        29.84S
$$
  *****  WEATHER ELSEWHERE ACROSS MINNESOTA  *****

CITY           SKY/WX    TMP DP  RH WIND       PRES   REMARKS
DULUTH         PTCLDY    61  47  59 W8        29.76R
INTRNTL FALLS  CLOUDY    63  47  55 NW8       29.76R
ELY            CLOUDY    63  46  55 NW3       29.75R
CLOQUET        CLEAR     63  46  55 W7        29.77R
WHEATON        CLEAR     63  52  67 NW3       29.90R
BRAINERD       CLEAR     66  47  50 NW7       29.83R
HIBBING        CLOUDY    65  46  50 NW10      29.77R
ALEXANDRIA     CLEAR     65  52  62 NW8       29.88R
SAINT CLOUD    CLEAR     62  52  69 NW9       29.83R
MINNEAPOLIS    CLEAR     73  51  46 NW13      29.81R
$$

  *****  WEATHER ACROSS SOUTH DAKOTA  *****

CITY           SKY/WX    TMP DP  RH WIND       PRES   REMARKS
SIOUX FALLS    CLEAR     68  60  75 N8        29.91R
BROOKINGS      CLEAR     64  55  72 NW5       29.93R
WATERTOWN      CLEAR     65  56  72 N3        29.92R
HURON          CLEAR     70  60  70 E3        29.91R
SISSETON         N/A     60  54  80 NW6       29.88R
ABERDEEN       CLEAR     68  58  70 N3        29.91R
MITCHELL       CLEAR     69  61  75 N5        29.91R
PIERRE         CLEAR     69  54  58 N8        29.93R
MOBRIDGE       CLEAR     70  56  61 NE9       29.93R
RAPID CITY     CLEAR     70  54  56 NE10      30.01R
$$

  *****  SOME WEATHER IN NEARBY STATES *****

CITY           SKY/WX    TMP DP  RH WIND       PRES   REMARKS
GLASGOW MT     CLEAR     70  47  43 NE10      29.99R
GREAT FALLS MT CLEAR     77  46  33 E9        29.95S
CHEYENNE WY    MOCLDY    73  49  42 S8        30.14R
SCOTTSBLUFF NE MOCLDY    72  61  68 MISG      29.97R
OMAHA NE       TSTM      80  76  87 N10       29.83R
DES MOINES IA  PTCLDY    76  65  68 W6        29.82R
DAVENPORT IA   PTCLDY    80  74  81 SW13      29.75R
CHICAGO IL     MOCLDY    84  71  65 SW12G23   29.67R
EAU CLAIRE WI  CLEAR     68  54  60 NW6       29.75R
LA CROSSE WI   MOCLDY    75  64  68 NW8       29.73R
$$

  *****  SOME NATIONAL WEATHER *****

CITY           SKY/WX    TMP DP  RH WIND       PRES   REMARKS
LA GUARDIA NY  PTCLDY    80  63  55 S6        29.86F
RALEIGH NC     MOCLDY    73  61  65 CALM      29.95S
ATLANTA GA     MOCLDY    82  68  62 SE6       29.92R
NEW ORLEANS LA PTCLDY    84  73  69 S9        29.88R HX  90
OKLAHOMA CITY  CLOUDY    76  67  73 SE7       29.91R
ALBUQUERQUE NM MOCLDY    74  54  49 W5        30.12R
SALT LAKE CITY CLOUDY    79  49  34 SE10      29.96R
LOS ANGELES CA PTCLDY    71  62  73 W15       29.83S
BOISE ID       CLOUDY    93  46  19 N3        29.77S
SEATTLE WA     CLOUDY    83  48  29 CALM      29.90S
$$

*** WEATHER ACROSS MANITOBA...SASKATCHEWAN AND ONTARIO ***
                ***ONTARIO***

CITY           SKY/WX    TMP DP  RH WIND       PRES   REMARKS
GERALDTON      MOCLDY    55  52  88 W3        29.60S
THUNDER BAY    CLOUDY    63  54  72 NW14G24   29.67R
SIOUX LOOKOUT  LGT RAIN  55  52  88 NW7G17    29.70S
TORONTO        LGT RAIN  66  63  88 W15G23    29.64F
BIG TROUT LK   MOCLDY    48  46  93 N8G17     29.57S
PICKLE LAKE    NOT AVBL
DRYDEN         CLOUDY    59  48  67 NW10G20   29.73R
KENORA         MOCLDY    63  48  59 NW10G18   29.76S
$$
                *** MANITOBA***

CITY           SKY/WX    TMP DP  RH WIND       PRES   REMARKS
BRANDON        CLEAR     55  50  82 NW7       29.91R
DAUPHIN        CLEAR     55  50  82 NW6       29.88R
ISLAND LAKE    LGT RAIN  55  54  94 NW12G21   29.70R
PILOT MOUND      N/A     55  50  82 NW7         N/A
THE PAS        MOCLDY    63  48  59 N12       29.88R
THOMPSON       CLOUDY    54  48  82 NW8       29.80R
WINNIPEG       MOCLDY    59  52  77 N6        29.84R
LYNN LAKE      CLEAR     57  46  67 N7        29.87R
CHURCHILL      LGT RAIN  46  43  87 NE16      29.76R
GILLAM         DRZL/FOG  48  46  93 N20G25    29.71R VSB 1
$$
                ***SASKATCHEWAN***

CITY           SKY/WX    TMP DP  RH WIND       PRES   REMARKS
ESTEVAN        PTCLDY    59  52  77 NW8       29.99R
KINDERSLEY     PTCLDY    66  55  68 E10       29.99S
LLOYDMINSTER   MOCLDY    66  50  55 E3        29.99S
PRINCE ALBERT  PTCLDY    61  54  77 N2        29.95R
REGINA         PTCLDY    61  52  72 N5        30.00R
YORKTON        CLEAR     59  52  77 W8        29.94R
N. BATTLEFORD  CLEAR     61  54  77 N5        30.00S
LA RONGE       CLEAR     64  41  42 NW3       29.91R
SASKATOON      PTCLDY    66  55  68 NW5       29.99R
SWIFT CURRENT  MOCLDY    66  55  68 SE5       30.02R
$$
NOTE: THESE ARE AUTOMATED STATIONS WITH LIMITED QUALITY CONTROL
      "FAIR" INDICATES FEW OR NO CLOUDS BELOW 12,000 FEET WITH NO
      SIGNIFICANT WEATHER AND/OR OBSTRUCTIONS TO VISIBILITY.
      SKY/WX - SKY CONDITION AND SIGNIFICANT WEATHER.
      TMP - AIR TEMPERATURE.    DP   - DEWPOINT TEMPERATURE.
      RH  - RELATIVE HUMIDITY.  PRES - PRESSURE.
      HX  - HEAT INDEX.         WCI  - WIND CHILL INDEX.
$


USA.gov is the U.S. government's official web portal to all federal, state and local government web resources and services.